Flight Track Log - Related Links

Times and Time Zones

All times are in EDT time to prevent confusion due to time zone crossing. See the TRS18 flight status page for this flight to view local times or setup timezone preferences in your user account.

Time Position Orientation Groundspeed Altitude Reporting Facility
EDT Latitude Longitude Course Direction KTS MPH feet Rate Location/Type
Fri 10:41:20 PM 33.6333 -84.4833 168° South 162 186 3,400  Level Atlanta TRACON
Fri 10:42:20 PM 33.6333 -84.5500 270° West 230 265 7,000 3,850 Climbing Atlanta TRACON
Fri 10:43:20 PM 33.6333 -84.6333 270° West 250 288 11,100 3,333 Climbing Atlanta TRACON
Fri 10:44:26 PM 33.5667 -84.7000 220° Southwest 320 368 14,000 845 Climbing Atlanta TRACON
Fri 10:46:00 PM 33.2776 -84.2402 168° South  Level FlightAware Approximate
Fri 10:46:53 PM 33.3461 -84.6331 166° South 335 386 14,100  Level Atlanta Center
Fri 10:47:53 PM 33.2756 -84.5358 131° Southeast 351 404 15,200 2,100 Climbing Atlanta Center
Fri 10:48:53 PM 33.2028 -84.4411 133° Southeast 375 432 18,300 3,350 Climbing Atlanta Center
Fri 10:49:53 PM 33.1258 -84.3389 132° Southeast 394 453 21,900 3,000 Climbing Atlanta Center
Fri 10:50:53 PM 33.0469 -84.2369 133° Southeast 406 467 24,300 2,800 Climbing Atlanta Center
Fri 10:51:53 PM 32.9675 -84.1578 140° Southeast 411 473 27,500 2,450 Climbing Atlanta Center
Fri 10:52:53 PM 32.8675 -84.1206 163° South 385 443 29,200 1,650 Climbing Atlanta Center
Fri 10:53:53 PM 32.7631 -84.0758 160° South 385 443 30,800 1,650 Climbing Atlanta Center
Fri 10:54:53 PM 32.6544 -84.0364 163° South 396 456 32,500 1,800 Climbing Atlanta Center
Fri 10:55:53 PM 32.5461 -83.9894 160° South 408 470 34,400 1,950 Climbing Atlanta Center
Fri 10:56:53 PM 32.4417 -83.9453 160° South 408 470 36,400 1,750 Climbing Atlanta Center
Fri 10:57:53 PM 32.3350 -83.9036 162° South 403 464 37,900 1,250 Climbing Atlanta Center
Fri 10:58:53 PM 32.2244 -83.8572 160° South 403 464 38,900 850 Climbing Atlanta Center
Fri 10:59:53 PM 32.1136 -83.8133 161° South 408 470 39,600 700 Climbing Atlanta Center
Fri 11:00:53 PM 31.9989 -83.7644 160° South 420 483 40,300 757 Climbing Atlanta Center
Fri 11:01:44 PM 31.8944 -83.7197 160° South 430 495 41,000 378 Climbing Jacksonville Center
Fri 11:02:44 PM 31.7778 -83.6697 160° South 447 514 41,000  Level Jacksonville Center
Fri 11:03:44 PM 31.6656 -83.6006 152° Southeast 452 520 41,000  Level Jacksonville Center
Fri 11:04:44 PM 31.5614 -83.5411 154° Southeast 457 526 41,000  Level Jacksonville Center
Fri 11:05:44 PM 31.4511 -83.4722 152° Southeast 457 526 41,000  Level Jacksonville Center
Fri 11:06:44 PM 31.3428 -83.4058 152° Southeast 445 512 41,000  Level Jacksonville Center
Fri 11:07:44 PM 31.2344 -83.3397 152° Southeast 445 512 41,000 -450 Level Jacksonville Center
Fri 11:08:44 PM 31.1242 -83.2689 151° Southeast 445 512 40,100 -1,100 Descending Jacksonville Center
Fri 11:09:44 PM 31.0075 -83.2003 153° Southeast 451 519 38,800 -1,400 Descending Jacksonville Center
Fri 11:10:44 PM 30.8928 -83.1297 152° Southeast 458 527 37,300 -1,500 Descending Jacksonville Center
Fri 11:11:44 PM 30.7739 -83.0544 151° Southeast 450 518 35,800 -1,400 Descending Jacksonville Center
Fri 11:12:44 PM 30.6611 -82.9867 153° Southeast 450 518 34,500 -1,150 Descending Jacksonville Center
Fri 11:13:44 PM 30.5464 -82.9142 151° Southeast 460 529 33,500 -1,000 Descending Jacksonville Center
Fri 11:14:44 PM 30.4294 -82.8469 154° Southeast 460 529 32,500 -1,000 Descending Jacksonville Center
Fri 11:15:44 PM 30.3167 -82.7772 152° Southeast 465 535 31,500 -1,050 Descending Jacksonville Center
Fri 11:16:44 PM 30.2039 -82.7122 154° Southeast 465 535 30,400 -1,050 Descending Jacksonville Center
Fri 11:17:44 PM 30.0950 -82.6453 152° Southeast 453 521 29,400 -900 Descending Jacksonville Center
Fri 11:18:44 PM 29.9989 -82.5881 153° Southeast 448 516 28,600 -900 Descending Jacksonville Center
Fri 11:19:44 PM 29.8944 -82.5236 152° Southeast 438 504 27,600 -1,050 Descending Jacksonville Center
Fri 11:20:44 PM 29.7939 -82.4667 154° Southeast 420 483 26,500 -1,050 Descending Jacksonville Center
Fri 11:21:44 PM 29.6914 -82.4072 153° Southeast 408 470 25,500 -1,000 Descending Jacksonville Center
Fri 11:22:44 PM 29.5931 -82.3503 153° Southeast 403 464 24,500 -1,000 Descending Jacksonville Center
Fri 11:23:44 PM 29.4947 -82.2889 151° Southeast 403 464 23,500 -1,200 Descending Jacksonville Center
Fri 11:24:44 PM 29.3983 -82.2347 154° Southeast 398 458 22,100 -1,700 Descending Jacksonville Center
Fri 11:25:44 PM 29.3042 -82.1781 152° Southeast 392 451 20,100 -2,000 Descending Jacksonville Center
Fri 11:26:44 PM 29.2142 -82.1264 153° Southeast 379 436 18,100 -2,050 Descending Jacksonville Center
Fri 11:27:44 PM 29.1242 -82.0750 153° Southeast 367 422 16,000 -2,050 Descending Jacksonville Center
Fri 11:28:44 PM 29.0403 -82.0258 153° Southeast 357 411 14,000 -1,950 Descending Jacksonville Center
Fri 11:29:44 PM 28.9586 -81.9767 152° Southeast 346 398 12,100 -1,550 Descending Jacksonville Center
Fri 11:30:44 PM 28.8747 -81.9228 151° Southeast 331 381 10,900 -600 Descending Jacksonville Center
Fri 11:31:44 PM 28.8303 -81.8450 123° Southeast 295 339 10,900 -608 Level Jacksonville Center
Fri 11:32:03 PM 28.8167 -81.8167 119° Southeast 283 326 10,100 -1,808 Descending Orlando TRACON
Fri 11:32:57 PM 28.7833 -81.7500 120° Southeast 292 336 8,700 -1,450 Descending Orlando TRACON
Fri 11:34:03 PM 28.7500 -81.6500 111° Southeast 292 336 7,200 -1,286 Descending Orlando TRACON
Fri 11:35:03 PM 28.7167 -81.5667 115° Southeast 286 329 6,000 -600 Descending Orlando TRACON
Fri 11:36:03 PM 28.6833 -81.5000 120° Southeast 259 298 6,000 -150 Level Orlando TRACON
Fri 11:37:03 PM 28.6500 -81.4333 120° Southeast 243 280 5,700 -1,000 Descending Orlando TRACON
Fri 11:38:03 PM 28.6000 -81.3667 130° Southeast 225 259 4,000 -1,600 Descending Orlando TRACON
Fri 11:39:03 PM 28.5667 -81.3167 127° Southeast 221 254 2,500 -1,050 Descending Orlando TRACON
Fri 11:40:03 PM 28.5333 -81.3000 156° South 146 168 1,900 -650 Descending Orlando TRACON
Fri 11:41:03 PM 28.5000 -81.3000 180° South 122 140 1,200 -600 Descending Orlando TRACON
Fri 11:42:03 PM 28.4667 -81.3000 180° South 112 129 700 -500 Descending Orlando TRACON
Fri 11:44:00 PM 28.4294 -81.3090 180° South  Level Estimated
Fri 11:51:00 PM 28.4294 -81.3090 180° South  Level Estimated
Fri 11:52:00 PM 28.4294 -81.3090 180° South  Level Estimated
Fri 11:53:00 PM 28.4294 -81.3090 180° South  Level Estimated

Login

Don't have an account? Register now (free) for customized features, flight alerts, and more!